Regional Weather Roundup
Issued by NWS

Home | Current Version | Previous Version | Graphics & Text | Print | Product List | Glossary Off
Versions: 1 2 3 4 5 6 7 8 9 10 11 12 13 14 15 16 17 18 19 20 21 22 23 24 25 26 27 28 29 30 31 32 33 34 35 36 37 38 39 40 41 42 43 44 45 46 47 48 49 50

000
ASUS43 KFSD 301310
RWRSD

WEATHER ROUNDUP FOR SOUTH DAKOTA
NATIONAL WEATHER SERVICE SIOUX FALLS SD
800 AM CDT SAT JUL 30 2016

NOTE: "FAIR" INDICATES FEW OR NO CLOUDS BELOW 12,000 FEET WITH NO
SIGNIFICANT WEATHER AND/OR OBSTRUCTIONS TO VISIBILITY.


SDZ001>005-009-010-012>017-301400-
NORTHWEST AND NORTH CENTRAL SOUTH DAKOTA

CITY           SKY/WX    TMP DP  RH WIND       PRES   REMARKS
BUFFALO          N/A     59  56  89 CALM      29.87S
FAITH            N/A     63  60  90 S14       29.92S
MOBRIDGE       SUNNY     68  57  68 S13       29.91S
$$

SDZ012>016-024>037-041>051-057-063-072>074-301400-
SOUTHWEST AND SOUTH CENTRAL SOUTH DAKOTA

CITY           SKY/WX    TMP DP  RH WIND       PRES   REMARKS
RAPID CTY ARPT SUNNY     60  57  89 CALM      29.95R
PIERRE         CLOUDY    65  59  81 SE9       29.94R
CUSTER         SUNNY     62  53  72 NW6       30.08S
ELLSWORTH AFB  SUNNY     63  58  84 W3        29.94S
PHILIP         SUNNY     64  63  96 E6        29.93R
PINE RIDGE     SUNNY     58  58 100 CALM      29.98S
WINNER         LGT RAIN  66  62  87 S10       29.98F
$$

SDZ004>011-016>023-039-040-301400-
NORTHEAST SOUTH DAKOTA

CITY           SKY/WX    TMP DP  RH WIND       PRES   REMARKS
ABERDEEN       SUNNY     63  56  78 S12       29.98S
WATERTOWN      SUNNY     63  56  78 S5        30.04R
BROOKINGS      SUNNY     62  56  80 S5        30.04R
SISSETON         N/A     66  58  75 S6        29.99S
$$

SDZ017-020-022-023-036>040-048>070-301400-
SOUTHEAST SOUTH DAKOTA

CITY           SKY/WX    TMP DP  RH WIND       PRES   REMARKS
SIOUX FALLS    SUNNY     63  58  83 CALM      30.04R
HURON          SUNNY     63  57  81 S8        30.00R
CHAMBERLAIN    CLOUDY    67  62  83 SE7       29.99S
MITCHELL       SUNNY     65  60  84 S8        30.01F
YANKTON        SUNNY     63  59  88 E3        30.03R
$$

ABBREVIATIONS USED IN REMARKS
   TC - TEMPERATURE IN CELSIUS
  WCI - WIND CHILL INDEX
   HX - HEAT INDEX
  VSB - VISIBILITY





USA.gov is the U.S. government's official web portal to all federal, state and local government web resources and services.